Location: ???????
(55.4362°N, 38.1183°E)
Time: 18:09:05
(UTC+00:00)

Cosmos 2278 Rocket - Pass Details

Date: 26 October 2021
Orbit: 841 x 845 km, 71.0° (Epoch: 28 November)

Event Time Altitude Azimuth Distance (km) Brightness Sun altitude
Rises 17:16:05 0° 325° (NW) 3,419 6.1 -27.9°
Reaches altitude 10° 17:18:33 10° 323° (NW) 2,479 5.3 -28.2°
Maximum altitude 17:24:12 71° 241° (WSW) 896 2.3 -28.9°
Enters shadow 17:24:22 71° 228° (SW) 898 2.3 -29.0°
